Location: Corralito
(10.2667°N, 66.9500°W)
Time: 21:19:10
(UTC+00:00)

BlueWalker 3 - Visible Passes

Search period start: 28 September 2023 00:00
Search period end: 08 October 2023 00:00
Orbit: 491 x 508 km, 53.2° (Epoch: 28 September)

Date Brightness Start Highest point End Pass type
(mag) Time Alt. Az. Time Alt. Az. Time Alt. Az.
04 Oct 3.8 00:06:57 10° SW 00:09:05 28° WSW 00:09:05 28° WSW visible
04 Oct 2.9 23:45:19 10° SW 23:48:56 43° NW 23:49:40 38° NNW visible
05 Oct 3.1 09:51:28 10° NNW 09:55:10 45° NE 09:58:53 10° SE visible
05 Oct 3.0 23:23:40 10° SW 23:27:17 43° NW 23:30:10 15° NNE visible
06 Oct 3.0 09:29:49 10° NNW 09:33:31 46° NE 09:37:14 10° SE visible
06 Oct 3.1 23:02:01 10° SW 23:05:38 42° NW 23:09:14 10° NNE visible
07 Oct 2.9 09:08:20 11° NNW 09:11:51 46° NE 09:15:34 10° SE visible
07 Oct 3.2 22:40:21 10° SW 22:43:58 42° NW 22:47:34 10° NNE visible
